Adjuster:

Genres

Documentary

1982-Present
NOTE: Documentary as sub-genre of Non-Fiction.
Large format (ex. Everest), concert (music, ex. Woodstock, and comedy, ex. Raw) , compilation (ex. That's Entertainment) and reality TV movies (ex. Jackass) omitted. Hybrids (ex. Never Say Never) are included.

Rows: #1-100, #101-200, #201-300, #301-400, #401-500, #501-600, #601-700, #701-800, #801-900, #901-1000, #1001-1100, #1101-1200, #1201-1300, #1301-1400, #1401-1490
RowRankTitle (click to view)StudioLifetime Gross / TheatersOpening / TheatersDate
1 231 Salinger Wein. $583,633 138 $86,956 4 9/6/13
2 220 Walking the Camino: Six Ways to Santiago FEF $612,717 11 n/a - 9/6/13
3 782 Mademoiselle C Cohen $48,668 7 $14,284 6 9/11/13
4 - Sample This GD n/a 15 n/a 15 9/13/13
5 1192 The Informant MBox $10,068 4 $2,947 2 9/13/13
6 965 Harry Dean Stanton: Partly Fiction AF $23,959 4 $6,330 2 9/13/13
7 850 Herb and Dorothy 50x50 FLM $38,933 8 $6,157 1 9/13/13
8 785 GMO OMG SD $47,558 9 $15,100 1 9/13/13
9 774 Le Joli Mai Icar. $49,647 3 $10,662 3 9/13/13
10 26 Jerusalem NGE $8,020,721 33 n/a - 9/13/13
11 1385 Men at Lunch FRun $2,483 1 $1,530 1 9/20/13
12 841 The Short Game Gold. $39,819 20 $28,434 17 9/20/13
13 660 After Tiller Osci. $72,125 6 $15,500 2 9/20/13
14 179 Generation Iron TVC $849,521 84 $245,000 53 9/20/13
15 1188 Shepard and Dark MBox $10,278 3 $1,226 1 9/25/13
16 206 Muscle Shoals Magn. $696,241 56 $13,901 1 9/27/13
17 142 Inequality for All RTWC $1,205,273 103 $140,888 28 9/27/13
18 698 Let the Fire Burn Zeit. $64,489 9 $5,226 1 10/2/13
19 - Running Wild: The Life of Dayton O. Hyde Scre. n/a - n/a - 10/4/13
20 1225 The Institute Argo. $8,445 4 $3,017 2 10/4/13
21 890 Dislecksia: The Movie A23 $33,066 1 $2,213 1 10/4/13
22 376 The Summit IFC $243,550 70 $20,904 8 10/4/13
23 322 Linsanity KE $302,645 16 $99,462 9 10/4/13
24 1078 Design is One FRun $16,386 1 $4,236 1 10/11/13
25 937 Broadway Idiot FB $27,595 6 $5,514 1 10/11/13
26 766 God Loves Uganda Vari. $51,229 5 $7,300 1 10/11/13
27 636 I Am Divine TFC $81,497 10 n/a 1 10/11/13
28 1273 The Human Scale KS $6,878 3 n/a - 10/18/13
29 1196 Birth of the Living Dead FRun $9,802 10 $1,239 6 10/18/13
30 488 American Promise RFG $146,702 8 $18,300 2 10/18/13
31 1176 Caucus BFOA $10,645 2 n/a - 10/25/13
32 548 Spinning Plates TFA $112,449 6 $20,717 3 10/25/13
33 522 The Square (2013) Nou $124,244 9 $16,359 1 10/25/13
34 1053 Casting By SD $18,164 2 $5,649 2 11/1/13
35 909 These Birds Walk Osci. $30,408 2 $5,454 1 11/1/13
36 888 Running From Crazy Vita. $33,300 5 $6,822 1 11/1/13
37 721 Sweet Dreams (2013) ICir $59,403 7 n/a - 11/1/13
38 684 The Pervert's Guide to Ideology Zeit. $67,966 4 $9,165 1 11/1/13
39 1297 People of a Feather FRun $5,677 1 $2,413 1 11/8/13
40 1006 The Ghosts In Our Machine GMI $20,709 2 $8,756 1 11/8/13
41 899 At Berkeley Zipp. $31,736 6 $5,069 2 11/8/13
42 283 The Armstrong Lie SPC $383,294 77 $28,992 5 11/8/13
43 967 Dear Mr. Watterson SD $23,899 9 $6,199 5 11/15/13
44 1340 Weekend of a Champion SD $4,100 2 $4,100 2 11/22/13
45 565 Bettie Page Reveals All MBox $108,118 21 $4,846 1 11/22/13
46 501 Is the Man Who Is Tall Happy? IFC $137,042 15 $31,800 3 11/22/13
47 489 Narco Cultura Cdgm. $145,088 46 $6,093 1 11/22/13
48 1333 The End of Time FRun $4,375 1 $1,468 1 11/29/13
49 1103 The Unbelievers CM $14,400 1 $5,925 1 11/29/13
50 925 Cousin Jules CGld $29,337 3 $5,135 1 11/29/13
51 526 The Punk Singer IFC $122,742 24 $24,729 3 11/29/13
52 1312 Nuclear Nation FRun $4,960 1 $2,268 1 12/11/13
53 1186 Liv & Ingmar Jan. $10,347 2 $5,451 2 12/13/13
54 683 Maidentrip FRun $68,243 9 $1,622 1 12/20/13
55 35 Believe ORF $6,206,566 1,037 $2,007,567 1,037 12/25/13
56 1140 In No Great Hurry: 13 Lessons in Life with Saul Leiter mTuck $12,133 4 $6,100 1 1/3/14
57 1008 The Great Flood Icar. $20,694 1 $3,596 1 1/8/14
58 815 If You Build It Long Shot $43,393 5 $4,949 1 1/10/14
59 781 American Mustang Vita. $48,700 3 $7,906 1 1/17/14
60 1378 Mercedes Sosa: The Voice of Latin America FRun $2,648 1 $1,415 1 1/24/14
61 1299 Papirosen FM $5,658 1 n/a - 1/24/14
62 1281 Aatsinki: The Story of Arctic Cowboys Argo. $6,601 2 $2,842 1 1/24/14
63 627 Visitors (2014) Cdgm. $84,577 13 $9,094 1 1/24/14
64 1034 Peter Brook: The Tightrope FRun $19,365 2 $6,768 1 1/31/14
65 631 12 O'Clock Boys Osci. $82,614 21 $44,108 21 1/31/14
66 106 Tim's Vermeer SPC $1,671,377 129 $49,777 4 1/31/14
67 445 Afternoon of a Faun KL $172,450 11 $15,292 2 2/5/14
68 834 The Last Of The Unjust Cohen $40,563 8 $14,328 8 2/7/14
69 492 Kids For Cash Pala. $143,178 12 $36,639 4 2/7/14
70 1409 Souldier PDF $1,500 2 $900 2 2/21/14
71 301 Elaine Stritch: Shoot Me IFC $327,452 41 $27,853 2 2/21/14
72 1372 Fatal Assistance Velv. $3,000 1 $3,000 1 2/28/14
73 175 Particle Fever Abr. $869,838 27 $53,901 4 3/5/14
74 1306 The Only Real Game TORG $5,384 1 $1,130 1 3/7/14
75 584 Beyond Sight: The Derek Rabelo Story WOWF $101,074 2 $26,840 2 3/7/14
76 838 Teenage Osci. $40,169 4 $8,000 1 3/14/14
77 732 Big Men Abr. $56,286 3 $7,539 1 3/14/14
78 759 The Missing Picture Strand $52,164 9 $10,148 5 3/19/14
79 440 Anita Gold. $176,979 12 $44,114 7 3/21/14
80 213 Jodorowsky's Dune SPC $647,280 61 $36,018 3 3/21/14
81 1283 Jews of Egypt Artma $6,505 2 $2,179 1 3/28/14
82 661 Veil of Tears WF $72,078 8 $44,358 8 3/28/14
83 498 Mistaken for Strangers Abr. $138,991 9 $87,743 9 3/28/14
84 117 Finding Vivian Maier IFC $1,514,782 97 $63,600 3 3/28/14
85 1304 Flex is Kings BBFR $5,418 1 $3,152 1 4/4/14
86 628 Watermark EOne $84,464 16 $7,724 2 4/4/14
87 372 The Galapagos Affair: Satan Came to Eden Zeit. $247,159 15 $5,185 1 4/4/14
88 340 The Unknown Known RTWC $276,497 80 $64,315 18 4/4/14
89 482 Dancing in Jaffa IFC $151,098 23 $10,564 2 4/11/14
90 1319 Half the Road FRun $4,783 2 $1,613 2 4/18/14
91 1166 The Final Member Drft. $11,428 10 $2,064 7 4/18/14
92 915 Manakamana CGld $30,029 4 $3,635 1 4/18/14
93 14 Bears BV $17,780,194 1,790 $4,776,267 1,720 4/18/14
94 1231 Gringo Trails Icar. $8,349 2 $158 1 4/19/14
95 1052 Who is Dayani Cristal? KL $18,190 2 $5,712 2 4/25/14
96 816 Next Goal Wins KE $43,089 10 $2,568 5 4/25/14
97 689 For No Good Reason SPC $67,421 21 $4,516 2 4/25/14
98 1406 More Than the Rainbow FRun $1,677 1 $1,082 1 5/2/14
99 907 Documented DefA $30,662 3 $5,422 1 5/2/14
100 775 NOW: In the Wings on a World Stage Spa. $49,591 3 $21,500 3 5/2/14
TOTAL (All Movies):$1,265,461,922----
AVERAGE (All Movies):$880,01550$138,02129-
TOTAL
(Wide Releases Only):
$670,675,025----
AVERAGE
(Wide Releases Only):
$26,827,0011,582$9,028,1251,648-
Rows: #1-100, #101-200, #201-300, #301-400, #401-500, #501-600, #601-700, #701-800, #801-900, #901-1000, #1001-1100, #1101-1200, #1201-1300, #1301-1400, #1401-1490


If there are any movies that you think should be on this list, e-mail us at mail@boxofficemojo.com.




UPCOMING RELEASES
Title (click to view)StudioRelease Date
The Decent One KL 10/1/14
I am Not Your Negro Magn. 2/3/17
Kedi Osci. 2/10/17
Contemporary Color Osci. 3/1/17
My Scientology Movie Magn. 3/3/17
Jeremiah Tower Orch. 4/14/17
Born in China BV 4/21/17
Compared to What? The Improbable Journey of Barney Frank PWP TBD